Meteo pe oră la Bolshie Lozicy

Astăzi, 6 Mai, Joi

Timp Temperatura Precipitaţii Vânt Presiune Umiditate
00:00 +8°C° 0 mm 5 m/s 733 mmHg 85%
01:00 +8°C° 0 mm 5 m/s 732 mmHg 86%
02:00 +8°C° 0 mm 5 m/s 732 mmHg 86%
03:00 +8°C° 0.1 mm 6 m/s 731 mmHg 89%
04:00 +8°C° 0.1 mm 6 m/s 731 mmHg 91%
05:00 +8°C° 0.1 mm 6 m/s 731 mmHg 94%
06:00 +7°C° 1.5 mm 6 m/s 731 mmHg 93%
07:00 +5°C° 1.5 mm 7 m/s 731 mmHg 93%
08:00 +4°C° 0 mm 7 m/s 732 mmHg 93%
09:00 +5°C° 0.7 mm 6 m/s 732 mmHg 90%
10:00 +5°C° 0.7 mm 6 m/s 733 mmHg 87%
11:00 +6°C° 0.7 mm 5 m/s 733 mmHg 84%
12:00 +6°C° 0.3 mm 7 m/s 734 mmHg 78%
13:00 +7°C° 0.3 mm 8 m/s 734 mmHg 71%
14:00 +8°C° 0.3 mm 9 m/s 735 mmHg 65%
15:00 +9°C° 0.3 mm 8 m/s 735 mmHg 66%
16:00 +9°C° 0.3 mm 8 m/s 736 mmHg 68%
17:00 +8°C° 0.3 mm 7 m/s 736 mmHg 69%
18:00 +6°C° 0 mm 7 m/s 737 mmHg 68%
19:00 +5°C° 0 mm 6 m/s 737 mmHg 67%
20:00 +5°C° 0 mm 5 m/s 738 mmHg 65%
21:00 +3°C° 0 mm 5 m/s 738 mmHg 70%
22:00 +3°C° 0 mm 4 m/s 738 mmHg 74%
23:00 +2°C° 0 mm 3 m/s 738 mmHg 79%

Mâine, 7 Mai, Vineri

Timp Temperatura Precipitaţii Vânt Presiune Umiditate
00:00 +1°C° 0 mm 4 m/s 739 mmHg 78%
01:00 +1°C° 0 mm 4 m/s 739 mmHg 78%
02:00 +1°C° 0 mm 4 m/s 739 mmHg 78%
03:00 +1°C° 0 mm 4 m/s 739 mmHg 78%
04:00 +1°C° 0 mm 4 m/s 738 mmHg 79%
05:00 +2°C° 0 mm 5 m/s 738 mmHg 80%
06:00 +3°C° 0 mm 5 m/s 738 mmHg 78%
07:00 +6°C° 0 mm 5 m/s 738 mmHg 76%
08:00 +7°C° 0 mm 6 m/s 738 mmHg 74%
09:00 +8°C° 0.1 mm 6 m/s 738 mmHg 70%
10:00 +9°C° 0.1 mm 6 m/s 738 mmHg 66%
11:00 +10°C° 0.1 mm 6 m/s 738 mmHg 62%
12:00 +10°C° 0.2 mm 6 m/s 738 mmHg 64%
13:00 +11°C° 0.2 mm 6 m/s 738 mmHg 66%
14:00 +11°C° 0.2 mm 6 m/s 737 mmHg 68%
15:00 +10°C° 0.7 mm 6 m/s 737 mmHg 74%
16:00 +9°C° 0.7 mm 5 m/s 736 mmHg 81%
17:00 +8°C° 0.7 mm 5 m/s 736 mmHg 87%
18:00 +8°C° 1.3 mm 5 m/s 735 mmHg 90%
19:00 +8°C° 1.3 mm 6 m/s 735 mmHg 92%
20:00 +8°C° 1.3 mm 7 m/s 734 mmHg 94%
21:00 +7°C° 0.1 mm 6 m/s 734 mmHg 95%
22:00 +7°C° 0.1 mm 5 m/s 734 mmHg 96%
23:00 +7°C° 0.1 mm 4 m/s 734 mmHg 97%

Poimâine, 8 Mai, Sâmbătă

Timp Temperatura Precipitaţii Vânt Presiune Umiditate
00:00 +7°C° 0.1 mm 4 m/s 734 mmHg 97%
01:00 +7°C° 0.1 mm 3 m/s 734 mmHg 97%
02:00 +7°C° 0.1 mm 3 m/s 733 mmHg 97%
03:00 +7°C° 0.1 mm 3 m/s 733 mmHg 97%
04:00 +7°C° 0.1 mm 3 m/s 733 mmHg 97%
05:00 +7°C° 0.1 mm 3 m/s 733 mmHg 96%
06:00 +7°C° 0.1 mm 3 m/s 733 mmHg 94%
07:00 +6°C° 0.1 mm 4 m/s 734 mmHg 92%
08:00 +6°C° 0.1 mm 5 m/s 734 mmHg 90%
09:00 +4°C° 0.3 mm 6 m/s 734 mmHg 92%
10:00 +3°C° 0.3 mm 6 m/s 735 mmHg 94%
11:00 +2°C° 0.3 mm 7 m/s 736 mmHg 96%
12:00 +2°C° 0.6 mm 7 m/s 736 mmHg 92%
13:00 +2°C° 0.6 mm 8 m/s 737 mmHg 89%
14:00 +2°C° 0.6 mm 8 m/s 738 mmHg 85%
15:00 +4°C° 0.1 mm 7 m/s 738 mmHg 80%
16:00 +5°C° 0.1 mm 7 m/s 739 mmHg 74%
17:00 +6°C° 0.1 mm 7 m/s 739 mmHg 69%
18:00 +5°C° 0 mm 6 m/s 740 mmHg 73%
19:00 +5°C° 0 mm 5 m/s 740 mmHg 77%
20:00 +3°C° 0 mm 5 m/s 741 mmHg 80%
21:00 +2°C° 0 mm 5 m/s 741 mmHg 84%
22:00 +3°C° 0 mm 4 m/s 742 mmHg 88%
23:00 +1°C° 0 mm 4 m/s 742 mmHg 92%

9 Mai, Duminică

Timp Temperatura Precipitaţii Vânt Presiune Umiditate
00:00 0°C° 0 mm 4 m/s 743 mmHg 93%
01:00 0°C° 0 mm 4 m/s 743 mmHg 94%
02:00 -1°C° 0 mm 4 m/s 744 mmHg 94%
03:00 0°C° 0 mm 3 m/s 744 mmHg 93%
04:00 0°C° 0 mm 3 m/s 745 mmHg 92%
05:00 -1°C° 0 mm 3 m/s 746 mmHg 91%
06:00 +1°C° 0 mm 3 m/s 746 mmHg 83%
07:00 +3°C° 0 mm 3 m/s 747 mmHg 74%
08:00 +5°C° 0 mm 4 m/s 748 mmHg 66%
09:00 +7°C° 0 mm 3 m/s 748 mmHg 59%
10:00 +9°C° 0 mm 3 m/s 749 mmHg 53%
11:00 +10°C° 0 mm 3 m/s 749 mmHg 46%
12:00 +10°C° 0 mm 3 m/s 749 mmHg 44%
13:00 +11°C° 0 mm 3 m/s 749 mmHg 42%
14:00 +12°C° 0 mm 3 m/s 749 mmHg 40%
15:00 +13°C° 0 mm 2 m/s 749 mmHg 42%
16:00 +13°C° 0 mm 2 m/s 749 mmHg 43%
17:00 +13°C° 0 mm 2 m/s 750 mmHg 45%
18:00 +10°C° 0 mm 2 m/s 750 mmHg 51%
19:00 +9°C° 0 mm 2 m/s 750 mmHg 56%
20:00 +7°C° 0 mm 2 m/s 750 mmHg 62%
21:00 +7°C° 0 mm 3 m/s 751 mmHg 65%
22:00 +5°C° 0 mm 3 m/s 751 mmHg 68%
23:00 +4°C° 0 mm 3 m/s 751 mmHg 71%

10 Mai, Luni

Timp Temperatura Precipitaţii Vânt Presiune Umiditate
00:00 +4°C° 0 mm 3 m/s 751 mmHg 71%
01:00 +3°C° 0 mm 3 m/s 752 mmHg 72%
02:00 +3°C° 0 mm 3 m/s 752 mmHg 73%
03:00 +3°C° 0 mm 3 m/s 752 mmHg 74%
04:00 +3°C° 0 mm 3 m/s 753 mmHg 75%
05:00 +3°C° 0 mm 3 m/s 753 mmHg 76%
06:00 +5°C° 0 mm 3 m/s 753 mmHg 72%
07:00 +7°C° 0 mm 4 m/s 753 mmHg 67%
08:00 +10°C° 0 mm 4 m/s 753 mmHg 63%
09:00 +11°C° 0 mm 4 m/s 753 mmHg 60%
10:00 +13°C° 0 mm 5 m/s 754 mmHg 57%
11:00 +14°C° 0 mm 5 m/s 754 mmHg 54%
12:00 +15°C° 0 mm 5 m/s 753 mmHg 53%
13:00 +15°C° 0 mm 5 m/s 753 mmHg 52%
14:00 +16°C° 0 mm 5 m/s 753 mmHg 50%
15:00 +17°C° 0 mm 4 m/s 753 mmHg 54%
16:00 +15°C° 0 mm 4 m/s 753 mmHg 57%
17:00 +15°C° 0 mm 4 m/s 753 mmHg 61%
18:00 +13°C° 0 mm 4 m/s 753 mmHg 67%
19:00 +11°C° 0 mm 3 m/s 753 mmHg 72%
20:00 +10°C° 0 mm 3 m/s 753 mmHg 78%
21:00 +9°C° 0 mm 3 m/s 753 mmHg 78%
22:00 +8°C° 0 mm 3 m/s 753 mmHg 77%
23:00 +7°C° 0 mm 3 m/s 753 mmHg 76%

11 Mai, Marţi

Timp Temperatura Precipitaţii Vânt Presiune Umiditate
00:00 +7°C° 0 mm 3 m/s 753 mmHg 76%
01:00 +5°C° 0 mm 3 m/s 753 mmHg 75%
02:00 +5°C° 0 mm 3 m/s 753 mmHg 74%
03:00 +5°C° 0 mm 3 m/s 753 mmHg 76%
04:00 +5°C° 0 mm 3 m/s 753 mmHg 77%
05:00 +4°C° 0 mm 3 m/s 753 mmHg 79%
06:00 +7°C° 0 mm 3 m/s 753 mmHg 74%
07:00 +10°C° 0 mm 3 m/s 753 mmHg 69%
08:00 +12°C° 0 mm 4 m/s 753 mmHg 65%
09:00 +13°C° 0 mm 4 m/s 753 mmHg 60%
10:00 +14°C° 0 mm 4 m/s 753 mmHg 55%
11:00 +15°C° 0 mm 5 m/s 753 mmHg 51%
12:00 +16°C° 0 mm 5 m/s 753 mmHg 49%
13:00 +18°C° 0 mm 4 m/s 752 mmHg 48%
14:00 +18°C° 0 mm 4 m/s 752 mmHg 46%
15:00 +18°C° 0 mm 4 m/s 752 mmHg 50%
16:00 +18°C° 0 mm 4 m/s 752 mmHg 54%
17:00 +18°C° 0 mm 3 m/s 751 mmHg 58%
18:00 +16°C° 0 mm 3 m/s 751 mmHg 64%
19:00 +13°C° 0 mm 3 m/s 751 mmHg 70%
20:00 +12°C° 0 mm 3 m/s 751 mmHg 76%
21:00 +11°C° 0 mm 3 m/s 751 mmHg 78%
22:00 +10°C° 0 mm 3 m/s 751 mmHg 79%
23:00 +10°C° 0 mm 3 m/s 751 mmHg 81%
Arată mai mult

Formular de consimțământ

Meteoprog și furnizorii noștri de servicii pot stoca și accesa date personale, precum cookies, identificatori de dispozitiv sau alte tehnologii similare pe dispozitivul dumneavoastră și procesa astfel de date pentru a personaliza conținutul și reclamele, dar și pentru a oferi caracteristici de social media și pentru a analiza traficul.

  • Stocarea și/sau accesarea informațiilor pe dispozitivul dumneavoastră

    Cookies, identificatori de dispozitiv sau alte informații pot fi stocate sau accesate pe dispozitiv în scopurile indicate mai sus.

  • Reclame și conținut personalizat, evaluarea reclamelor și a conținutului, informații despre audiențe și dezvoltarea produselor

    Reclamele și conținutul pot fi personalizate pe baza unui profil. Pot fi adăugate date suplimentare pentru a personaliza mai bine reclamele și conținutul. Performanța reclamelor și conținutului poate fi măsurată. Pot fi obținute informații despre utilizatorii care au văzut reclamele și conținutul. Aceste date pot fi utilizate pentru a dezvolta sau îmbunătăți experiența utilizatorilor, sistemele și software-ul.

Dând clic pe ‘Sunt de acord’, permiteți utilizarea cookie-urilor menționate, a identificatorilor de dispozitiv, balizelor web sau altor tehnologii similare. Setările pot fi modificate din browser-ul dispozitivului dumneavoastră.

În anumite scopuri, interesele legitime pot prima asupra consimțământului. Puteți citi mai multe informații în acest sens în Politica privind Confidențialitatea Datelor și Cookie.